[[{"header":{"parameterUnit":"m.s-1","parameterCategory":1,"la1":30.2991,"la2":30.254,"lo1":-89.0895,"lo2":-89.0444,"dy":0.0017,"dx":0.0017,"nx":28,"ny":28,"refTime":"2025-07-22T21:00:00:Z","depth":0,"parameterNumber":2,"parameterNumberName":"U-component_of_WINDS"},"data":[0,0,0,0,0,0,0,0,0,0,0,0,0,0,0,0,0,0,0,0,0,0,0,0,0,0,0,0,0,0,0,0,0,0,0,0,0,0,0,0,0,0,0,0,0,0,0,0,0,0,0,0,0,0,0,0,0,0,-0.3077,-0.3079,0,-0.3262,-0.3264,-0.3266,-0.3332,-0.3331,-0.3331,-0.333,-0.3522,-0.3528,-0.3534,0,0,0,0,0,0,0,0,0,0,0,0,0,-0.2781,-0.2786,-0.3076,-0.3079,-0.3081,-0.3262,-0.3264,-0.3267,-0.3332,-0.3331,-0.3331,-0.333,-0.3521,-0.3527,-0.3534,0,0,0,0,0,0,0,0,0,0,0,0,0,-0.2932,-0.2788,-0.3076,-0.3135,-0.3143,-0.3261,-0.3264,-0.3268,-0.3332,-0.3331,-0.333,-0.3329,-0.3518,-0.3527,-0.3535,-0.3609,0,0,-0.3562,-0.3565,0,0,0,0,0,0,0,0,-0.2924,-0.2943,-0.3124,-0.3132,-0.314,-0.3273,-0.3231,-0.3382,-0.3333,-0.326,-0.333,-0.3329,-0.344,-0.3455,-0.3493,-0.3618,-0.3626,-0.3562,-0.3568,-0.3571,-0.3574,0,0,0,0,0,0,0,-0.2913,-0.2935,-0.315,-0.3127,-0.3136,-0.3154,-0.3174,-0.326,-0.3354,-0.3267,-0.3272,-0.3293,-0.3444,-0.3484,-0.3498,-0.3629,-0.3562,-0.357,-0.3575,-0.3578,-0.3826,-0.3828,0,0,0,0,0,0,-0.2892,-0.2926,-0.3144,-0.3156,-0.3027,-0.316,-0.3183,-0.3231,-0.3353,-0.3371,-0.3293,-0.3295,-0.347,-0.3487,-0.3505,-0.36,-0.3571,-0.3579,-0.3584,-0.3825,-0.3827,-0.3828,0,0,0,0,0,0,-0.2886,-0.2911,-0.3137,-0.3042,-0.3072,-0.3166,-0.322,-0.3235,-0.3275,-0.3373,-0.3391,-0.3317,-0.347,-0.3492,-0.3583,-0.3608,-0.3583,-0.3591,-0.3823,-0.3825,-0.3827,-0.3791,0,0,0,0,0,0,-0.2877,-0.2908,-0.2937,-0.3043,-0.3077,-0.3211,-0.3222,-0.324,-0.329,-0.3294,-0.34,-0.3416,-0.3471,-0.357,-0.3591,-0.3619,-0.3598,-0.3821,-0.3824,-0.3827,-0.3791,-0.3792,-0.3793,0,0,0,0,0,-0.2866,-0.2919,-0.2938,-0.2964,-0.3115,-0.3212,-0.3232,-0.3293,-0.3291,-0.3321,-0.3385,-0.3413,-0.3601,-0.3578,-0.3603,-0.3634,-0.382,-0.3823,-0.3826,-0.379,-0.3792,-0.3793,0,0,0,0,0,0,-0.2815,-0.2934,-0.2956,-0.3045,-0.3118,-0.3223,-0.3263,-0.3292,-0.3368,-0.3368,-0.3441,-0.3465,-0.355,-0.3601,-0.3573,-0.3713,-0.3712,-0.3721,-0.3676,-0.3678,-0.3679,-0.3666,-0.3605,0,0,0,0,0,-0.2813,-0.2882,-0.2983,-0.3052,-0.3087,-0.3168,-0.3213,-0.3254,-0.3332,-0.3364,-0.3434,-0.351,-0.3586,-0.3635,-0.3711,-0.3798,-0.3823,-0.3832,-0.3833,-0.3833,-0.384,-0.3891,-0.3897,-0.3838,-0.3838,-0.3838,0,0,-0.2812,-0.2886,-0.2925,-0.3043,-0.3105,-0.3175,-0.3194,-0.3267,-0.3321,-0.3375,-0.3465,-0.3519,-0.3608,-0.3698,-0.3741,-0.3743,-0.3861,-0.3837,-0.3837,-0.3844,-0.3895,-0.39,-0.3905,-0.384,-0.384,-0.384,0,0,-0.2846,-0.2908,-0.2973,-0.3034,-0.3126,-0.318,-0.3195,-0.3296,-0.3334,-0.3425,-0.3467,-0.3532,-0.3662,-0.3724,-0.3773,-0.383,-0.386,-0.3853,-0.3859,-0.3908,-0.3913,-0.3917,-0.3939,-0.3946,-0.3859,-0.3859,-0.3859,0,-0.2833,-0.294,-0.3002,-0.3074,-0.3125,-0.3177,-0.3244,-0.33,-0.3412,-0.3447,-0.3448,-0.3612,-0.3676,-0.3782,-0.3796,-0.3833,-0.3854,-0.3842,-0.3907,-0.3912,-0.3917,-0.3939,-0.3947,-0.3858,-0.3858,-0.3858,-0.3858,0,-0.292,-0.2993,-0.3034,-0.3141,-0.3197,-0.3266,-0.3339,-0.3389,-0.3424,-0.3478,-0.3571,-0.3649,-0.3742,-0.377,-0.3805,-0.3881,-0.3879,-0.3892,-0.3894,-0.392,-0.3942,-0.395,-0.3856,-0.3856,-0.3857,-0.3857,0,0,-0.2927,-0.3067,-0.3081,-0.3131,-0.3237,-0.3295,-0.3366,-0.3457,-0.3498,-0.3574,-0.3636,-0.3745,-0.3758,-0.3813,-0.3856,-0.3899,-0.3941,-0.3908,-0.3911,-0.3912,-0.403,-0.402,-0.4028,-0.3961,-0.3962,-0.3964,-0.4023,0,-0.2975,-0.3104,-0.3163,-0.3266,-0.3335,-0.3386,-0.3448,-0.352,-0.3572,-0.3639,-0.3697,-0.3774,-0.3784,-0.3818,-0.3863,-0.3926,-0.3966,-0.3923,-0.4021,-0.4023,-0.3998,-0.404,-0.4029,-0.4081,-0.4032,-0.4033,-0.4034,0,-0.3049,-0.3124,-0.3234,-0.3332,-0.3364,-0.3418,-0.3506,-0.3569,-0.3653,-0.3688,-0.3749,-0.379,-0.3868,-0.3863,-0.3972,-0.3942,-0.3985,-0.4022,-0.4026,-0.4038,-0.4031,-0.4054,-0.4099,-0.4107,-0.4048,-0.4047,-0.4046,0,-0.3044,-0.3173,-0.3256,-0.3297,-0.3413,-0.345,-0.3501,-0.3583,-0.3634,-0.3711,-0.3745,-0.3829,-0.3876,-0.3942,-0.4005,-0.3995,-0.4108,-0.4108,-0.4141,-0.4139,-0.4163,-0.4161,-0.4217,-0.4189,-0.4189,-0.4189,-0.4189,0,-0.3093,-0.3158,-0.3256,-0.3307,-0.3382,-0.3449,-0.3522,-0.3576,-0.3648,-0.3712,-0.376,-0.3819,-0.3898,-0.3967,-0.4017,-0.4101,-0.4121,-0.4152,-0.4165,-0.4149,-0.4145,-0.4179,-0.4178,-0.4191,-0.419,-0.419,-0.419,0,-0.3101,-0.3168,-0.3262,-0.3364,-0.3392,-0.3443,-0.3531,-0.3583,-0.3637,-0.3716,-0.3739,-0.3824,-0.3908,-0.3977,-0.4087,-0.4121,-0.4208,-0.4222,-0.418,-0.4187,-0.4215,-0.4212,-0.4296,-0.4311,-0.4271,-0.4272,-0.4272,0,-0.3128,-0.3179,-0.3287,-0.3332,-0.3382,-0.3455,-0.3507,-0.3575,-0.3627,-0.3726,-0.3766,-0.3853,-0.3926,-0.4057,-0.413,-0.4214,-0.4232,-0.4255,-0.4245,-0.4227,-0.4233,-0.423,-0.4236,-0.4256,-0.4256,-0.4256,-0.4256,0,-0.3169,-0.32,-0.3272,-0.3357,-0.3418,-0.3488,-0.3559,-0.3594,-0.3676,-0.3732,-0.3818,-0.3874,-0.3986,-0.4072,-0.4164,-0.4217,-0.4251,-0.4259,-0.4271,-0.4255,-0.4229,-0.4245,-0.4183,-0.4257,-0.4257,-0.4257,-0.4257,-0.4257,-0.3188,-0.3237,-0.332,-0.34,-0.3461,-0.3526,-0.358,-0.3641,-0.3714,-0.381,-0.3846,-0.3934,-0.4017,-0.4144,-0.4197,-0.4267,-0.4271,-0.4289,-0.4293,-0.4297,-0.4295,-0.4216,-0.4284,-0.4284,-0.4284,-0.4284,-0.4284,0,-0.3233,-0.3289,-0.3361,-0.346,-0.3523,-0.3548,-0.3628,-0.368,-0.3756,-0.383,-0.3901,-0.4,-0.4084,-0.4163,-0.425,-0.4292,-0.4309,-0.4313,-0.4311,-0.4323,-0.4286,-0.4267,-0.4297,-0.4297,-0.4297,-0.4297,-0.4297,-0.4297,-0.3263,-0.3347,-0.3388,-0.3503,-0.3559,-0.3645,-0.3689,-0.375,-0.381,-0.3918,-0.3987,-0.4038,-0.4115,-0.4209,-0.4287,-0.4308,-0.4339,-0.4338,-0.4363,-0.4327,-0.4325,-0.4323,-0.4306,-0.4344,-0.4344,-0.4395,-0.4395,-0.4395]},{"header":{"parameterUnit":"m.s-1","parameterCategory":1,"la1":30.2991,"la2":30.254,"lo1":-89.0895,"lo2":-89.0444,"dy":0.0017,"dx":0.0017,"nx":28,"ny":28,"refTime":"2025-07-22T21:00:00:Z","depth":0,"parameterNumber":3,"parameterNumberName":"V-component_of_WINDS"},"data":[0,0,0,0,0,0,0,0,0,0,0,0,0,0,0,0,0,0,0,0,0,0,0,0,0,0,0,0,0,0,0,0,0,0,0,0,0,0,0,0,0,0,0,0,0,0,0,0,0,0,0,0,0,0,0,0,0,0,-2.4969,-2.497,0,-2.5042,-2.5043,-2.5044,-2.5012,-2.5011,-2.5009,-2.5007,-2.5077,-2.508,-2.5083,0,0,0,0,0,0,0,0,0,0,0,0,0,-2.4798,-2.4802,-2.4969,-2.497,-2.4971,-2.5042,-2.5043,-2.5044,-2.5013,-2.5011,-2.5008,-2.5006,-2.5075,-2.508,-2.5084,0,0,0,0,0,0,0,0,0,0,0,0,0,-2.4872,-2.4803,-2.4969,-2.4964,-2.4964,-2.5042,-2.5043,-2.5044,-2.5013,-2.501,-2.5008,-2.5005,-2.5074,-2.5079,-2.5084,-2.5169,0,0,-2.51,-2.5103,0,0,0,0,0,0,0,0,-2.4868,-2.4878,-2.4964,-2.4964,-2.4965,-2.5015,-2.5008,-2.5086,-2.5014,-2.4994,-2.5007,-2.5004,-2.5058,-2.5064,-2.5084,-2.5172,-2.5175,-2.5101,-2.5104,-2.5106,-2.5108,0,0,0,0,0,0,0,-2.4863,-2.4875,-2.4997,-2.4965,-2.4966,-2.4957,-2.4964,-2.5023,-2.504,-2.4996,-2.4994,-2.5003,-2.5058,-2.5079,-2.5085,-2.5176,-2.5101,-2.5105,-2.5108,-2.5111,-2.534,-2.5343,0,0,0,0,0,0,-2.4858,-2.4871,-2.4995,-2.5,-2.4909,-2.4962,-2.497,-2.5002,-2.5039,-2.5042,-2.5005,-2.5001,-2.5071,-2.5079,-2.5087,-2.5191,-2.5106,-2.5111,-2.5114,-2.5337,-2.5341,-2.5344,0,0,0,0,0,0,-2.4855,-2.487,-2.4992,-2.4935,-2.495,-2.4968,-2.5003,-2.5005,-2.5026,-2.5046,-2.5049,-2.5024,-2.5069,-2.508,-2.515,-2.5193,-2.5113,-2.5118,-2.5334,-2.5339,-2.5343,-2.5398,0,0,0,0,0,0,-2.485,-2.4869,-2.4902,-2.4936,-2.4953,-2.5055,-2.5006,-2.5008,-2.5035,-2.5031,-2.5064,-2.5067,-2.5068,-2.5142,-2.5155,-2.5199,-2.5122,-2.533,-2.5336,-2.5341,-2.5392,-2.5403,-2.5413,0,0,0,0,0,-2.4844,-2.4912,-2.4904,-2.4919,-2.4995,-2.5057,-2.5067,-2.5068,-2.5039,-2.5072,-2.5086,-2.5066,-2.5186,-2.515,-2.5164,-2.521,-2.5327,-2.5334,-2.5341,-2.5387,-2.5401,-2.5413,0,0,0,0,0,0,-2.488,-2.4917,-2.4907,-2.4989,-2.5021,-2.5052,-2.5094,-2.5082,-2.5121,-2.5115,-2.5113,-2.5121,-2.5194,-2.5208,-2.5167,-2.5295,-2.5252,-2.5262,-2.5283,-2.5296,-2.5306,-2.5302,-2.5127,0,0,0,0,0,-2.4898,-2.4947,-2.4976,-2.5045,-2.5062,-2.5076,-2.5102,-2.5101,-2.5133,-2.5145,-2.5164,-2.5194,-2.5239,-2.5268,-2.531,-2.5394,-2.5401,-2.5432,-2.5443,-2.5451,-2.546,-2.5507,-2.5522,-2.5366,-2.5366,-2.5366,0,0,-2.4935,-2.4961,-2.4992,-2.5053,-2.5078,-2.5128,-2.5087,-2.5141,-2.5178,-2.5153,-2.5221,-2.5236,-2.5269,-2.5348,-2.5383,-2.5362,-2.5505,-2.546,-2.5467,-2.5471,-2.5516,-2.5531,-2.5544,-2.5371,-2.537,-2.5369,0,0,-2.5028,-2.5052,-2.5114,-2.514,-2.5179,-2.5188,-2.5203,-2.5236,-2.5246,-2.5315,-2.5298,-2.5341,-2.5417,-2.5443,-2.5466,-2.5571,-2.5555,-2.5585,-2.564,-2.5686,-2.5698,-2.5709,-2.5748,-2.5762,-2.5593,-2.5593,-2.5593,0,-2.5068,-2.5145,-2.5147,-2.5204,-2.5232,-2.5214,-2.5277,-2.5301,-2.535,-2.5369,-2.5346,-2.5443,-2.5464,-2.5549,-2.5575,-2.5594,-2.5611,-2.5581,-2.5697,-2.5708,-2.5718,-2.5755,-2.577,-2.5597,-2.5596,-2.5596,-2.5596,0,-2.5194,-2.5247,-2.5292,-2.5344,-2.5376,-2.5435,-2.5446,-2.5478,-2.5474,-2.5486,-2.5557,-2.5582,-2.563,-2.5649,-2.5644,-2.5734,-2.572,-2.5697,-2.5654,-2.5736,-2.5771,-2.5785,-2.5602,-2.5601,-2.5599,-2.5599,0,0,-2.531,-2.5365,-2.5381,-2.5405,-2.5447,-2.5488,-2.5546,-2.5596,-2.5625,-2.5659,-2.5708,-2.5775,-2.5754,-2.578,-2.5778,-2.5819,-2.5903,-2.5791,-2.5791,-2.5812,-2.6005,-2.6023,-2.604,-2.5893,-2.5895,-2.5897,-2.6003,0,-2.5408,-2.5513,-2.5518,-2.5613,-2.5663,-2.5648,-2.5699,-2.573,-2.5742,-2.5786,-2.5798,-2.5846,-2.5815,-2.5831,-2.587,-2.5885,-2.5942,-2.5877,-2.5938,-2.594,-2.5932,-2.6058,-2.6077,-2.6175,-2.6016,-2.6018,-2.602,0,-2.5535,-2.5578,-2.5679,-2.5717,-2.5738,-2.5784,-2.5831,-2.5872,-2.5907,-2.5913,-2.5944,-2.5937,-2.5996,-2.5952,-2.6034,-2.5989,-2.6014,-2.6026,-2.6029,-2.6036,-2.5986,-2.6069,-2.6206,-2.6221,-2.6041,-2.604,-2.6038,0,-2.5613,-2.5695,-2.5767,-2.5787,-2.5832,-2.5866,-2.5885,-2.5918,-2.5948,-2.5988,-2.6008,-2.6053,-2.6078,-2.6113,-2.6118,-2.6085,-2.6201,-2.6157,-2.6208,-2.6208,-2.6233,-2.6232,-2.6378,-2.6248,-2.6248,-2.6248,-2.6247,0,-2.5722,-2.5785,-2.5803,-2.5847,-2.5917,-2.5921,-2.599,-2.6007,-2.6037,-2.6084,-2.6072,-2.6116,-2.612,-2.6164,-2.6168,-2.6237,-2.6247,-2.6254,-2.6254,-2.6256,-2.6255,-2.6273,-2.6267,-2.6251,-2.6251,-2.625,-2.6249,0,-2.582,-2.5834,-2.5912,-2.595,-2.5961,-2.6011,-2.6042,-2.6084,-2.6096,-2.6156,-2.617,-2.6188,-2.6241,-2.625,-2.631,-2.6313,-2.6395,-2.6388,-2.6384,-2.6384,-2.6435,-2.6431,-2.6598,-2.6621,-2.6475,-2.6477,-2.6478,0,-2.5889,-2.5938,-2.5982,-2.6014,-2.6036,-2.6087,-2.6119,-2.6125,-2.6158,-2.6203,-2.624,-2.6292,-2.6334,-2.6418,-2.6436,-2.6483,-2.6477,-2.6533,-2.6484,-2.6485,-2.648,-2.6477,-2.6483,-2.6542,-2.6544,-2.6545,-2.6546,0,-2.6011,-2.6016,-2.6064,-2.6115,-2.6154,-2.6193,-2.623,-2.6256,-2.6267,-2.6305,-2.636,-2.6393,-2.6457,-2.6509,-2.6556,-2.6575,-2.6563,-2.6562,-2.6576,-2.6578,-2.6575,-2.6579,-2.6411,-2.6558,-2.6556,-2.6556,-2.6555,-2.6555,-2.6097,-2.6141,-2.618,-2.6233,-2.6263,-2.6299,-2.6341,-2.636,-2.6407,-2.6461,-2.6461,-2.6522,-2.6557,-2.6619,-2.6642,-2.6689,-2.667,-2.6691,-2.6697,-2.6702,-2.6708,-2.6567,-2.6697,-2.6696,-2.6696,-2.6696,-2.6696,0,-2.622,-2.6245,-2.6294,-2.6349,-2.6391,-2.6379,-2.642,-2.6456,-2.651,-2.6545,-2.6587,-2.6651,-2.6702,-2.6725,-2.6775,-2.6808,-2.6804,-2.6821,-2.6819,-2.6824,-2.672,-2.6704,-2.6824,-2.6824,-2.6824,-2.6824,-2.6824,-2.6824,-2.6289,-2.6363,-2.6373,-2.6462,-2.6485,-2.6547,-2.6572,-2.6605,-2.6633,-2.6706,-2.675,-2.6765,-2.6795,-2.6848,-2.6894,-2.6899,-2.6918,-2.6938,-2.6941,-2.6844,-2.6831,-2.6819,-2.6803,-2.6942,-2.6942,-2.7041,-2.7042,-2.7043]}]]